Date String (YYYY-MM-DD hh:mm:ss) UTC,Instrument flags,Ambient pressure (hPa),Sample flow (lpm),Bypass flow (lpm),Sample temperature (°C),Ambient temperature (°C),ASC tube jacket temperature (°C),LED temperature (°C),Box temperature (°C),Sample RH (%),Span deviation,Mass concentration (μg/m³),Mass concentration (μg/m³),Mass concentration (μg/m³)
DateTimeUTC,F1_M11,P_M11,Q1_M11,Q2_M11,T1_M11,T2_M11,T3_M11,T4_M11,T5_M11,U1_M11,ZSPAN_M11,X2_M11,X0_M11,X1_M11
2022-03-15 20:00:00,,0825.3,5.00,0.00,27.1,26.3,00.0,36.0,28.9,02.9,0000.0,0001.10,0002.96,0000.58
2022-03-15 20:01:00,,0825.3,5.01,0.00,27.1,26.3,00.0,36.0,28.9,02.7,0000.0,0001.09,0002.89,0000.57
2022-03-15 20:02:00,,0825.3,5.00,0.00,27.1,26.4,00.0,36.0,28.9,02.9,0000.0,0001.03,0002.17,0000.55
2022-03-15 20:03:00,,0825.3,5.00,0.00,27.1,26.4,00.0,36.0,28.9,02.8,0000.0,0000.96,0002.05,0000.55
2022-03-15 20:04:00,,0825.2,5.00,0.00,27.1,26.4,00.0,36.0,28.9,02.8,0000.0,0000.97,0002.11,0000.55
2022-03-15 20:05:00,,0825.2,5.01,0.00,27.1,26.4,00.0,36.0,28.9,02.8,0000.0,0000.97,0002.02,0000.55
2022-03-15 20:06:00,,0825.2,4.99,0.00,27.2,26.4,00.0,36.0,28.9,02.5,0000.0,0000.98,0001.99,0000.55
2022-03-15 20:07:00,,0825.2,4.99,0.00,27.2,26.4,00.0,36.0,28.9,02.7,0000.0,0001.02,0002.03,0000.55
2022-03-15 20:08:00,,0825.2,5.02,0.00,27.2,26.4,00.0,36.0,28.9,03.1,0000.0,0000.96,0001.88,0000.54
2022-03-15 20:09:00,,0825.2,5.00,0.00,27.2,26.4,00.0,36.0,29.0,03.5,0000.0,0000.90,0001.71,0000.53
2022-03-15 20:10:00,,0825.2,5.00,0.00,27.2,26.5,00.0,36.1,29.0,02.8,0000.0,0000.89,0001.67,0000.51
2022-03-15 20:11:00,,0825.2,4.99,0.00,27.2,26.5,00.0,36.1,29.0,02.7,0000.0,0000.88,0001.65,0000.51
2022-03-15 20:12:00,,0825.2,5.00,0.00,27.2,26.5,00.0,36.1,29.0,02.7,0000.0,0000.89,0001.60,0000.52
2022-03-15 20:13:00,,0825.1,4.99,0.00,27.3,26.5,00.0,36.1,29.0,02.7,0000.0,0000.92,0001.65,0000.53
2022-03-15 20:14:00,,0825.0,5.00,0.00,27.3,26.5,00.0,36.1,29.1,02.8,0000.0,0000.93,0001.64,0000.53
2022-03-15 20:15:00,,0825.0,4.99,0.00,27.3,26.5,00.0,36.1,29.1,02.6,0000.0,0000.91,0001.57,0000.52
2022-03-15 20:16:00,,0825.0,5.00,0.00,27.3,26.5,00.0,36.1,29.1,02.7,0000.0,0000.91,0001.57,0000.51
2022-03-15 20:17:00,,0824.9,5.00,0.00,27.3,26.5,00.0,36.1,29.1,03.0,0000.0,0000.91,0001.58,0000.51
2022-03-15 20:18:00,,0825.0,5.01,0.00,27.3,26.5,00.0,36.2,29.1,02.7,0000.0,0000.87,0001.49,0000.51
2022-03-15 20:19:00,,0824.9,5.00,0.00,27.3,26.6,00.0,36.2,29.1,02.9,0000.0,0000.86,0001.45,0000.51
2022-03-15 20:20:00,,0824.9,5.00,0.00,27.3,26.6,00.0,36.2,29.1,02.8,0000.0,0000.90,0001.56,0000.52
2022-03-15 20:21:00,,0824.8,5.00,0.00,27.3,26.6,00.0,36.2,29.1,02.8,0000.0,0000.93,0001.67,0000.52
2022-03-15 20:22:00,,0824.9,4.99,0.00,27.3,26.6,00.0,36.2,29.1,03.0,0000.0,0000.92,0001.65,0000.51
2022-03-15 20:23:00,,0824.9,4.99,0.00,27.4,26.6,00.0,36.2,29.2,03.2,0000.0,0000.90,0001.62,0000.50
2022-03-15 20:24:00,,0824.8,5.00,0.00,27.4,26.6,00.0,36.2,29.2,03.1,0000.0,0000.90,0001.64,0000.50
2022-03-15 20:25:00,,0824.9,5.00,0.00,27.4,26.6,00.0,36.2,29.2,03.0,0000.0,0000.89,0001.66,0000.50
2022-03-15 20:26:00,,0824.9,5.00,0.00,27.4,26.6,00.0,36.2,29.2,02.8,0000.0,0000.90,0001.71,0000.50
2022-03-15 20:27:00,,0824.9,5.01,0.00,27.4,26.6,00.0,36.3,29.2,02.9,0000.0,0000.91,0001.84,0000.51
2022-03-15 20:28:00,,0824.9,5.00,0.00,27.4,26.6,00.0,36.3,29.2,02.8,0000.0,0000.90,0001.84,0000.51
2022-03-15 20:29:00,,0824.9,5.00,0.00,27.4,26.6,00.0,36.3,29.2,02.7,0000.0,0000.86,0001.78,0000.51
2022-03-15 20:30:00,,0824.8,5.00,0.00,27.4,26.6,00.0,36.3,29.2,02.7,0000.0,0000.85,0001.82,0000.51
2022-03-15 20:31:00,,0824.7,5.00,0.00,27.4,26.6,00.0,36.3,29.2,02.8,0000.0,0000.80,0001.72,0000.51
2022-03-15 20:32:00,,0824.7,5.01,0.00,27.4,26.6,00.0,36.3,29.2,02.8,0000.0,0000.76,0001.67,0000.50
2022-03-15 20:33:00,,0824.7,4.99,0.00,27.4,26.6,00.0,36.3,29.3,03.1,0000.0,0000.80,0002.78,0000.51
2022-03-15 20:34:00,,0824.8,5.00,0.00,27.4,26.6,00.0,36.3,29.2,02.8,0000.0,0000.80,0003.07,0000.51
2022-03-15 20:35:00,,0824.9,5.00,0.00,27.4,26.6,00.0,36.3,29.2,03.1,0000.0,0000.82,0003.09,0000.51
2022-03-15 20:36:00,,0824.7,5.00,0.00,27.4,26.6,00.0,36.3,29.2,03.0,0000.0,0000.83,0003.06,0000.52
2022-03-15 20:37:00,,0824.7,5.00,0.00,27.4,26.6,00.0,36.3,29.2,03.0,0000.0,0000.83,0002.99,0000.52
2022-03-15 20:38:00,,0824.7,4.99,0.00,27.4,26.6,00.0,36.3,29.3,03.1,0000.0,0000.82,0003.10,0000.51
2022-03-15 20:39:00,,0824.6,5.00,0.00,27.5,26.6,00.0,36.3,29.3,03.1,0000.0,0000.83,0004.27,0000.51
2022-03-15 20:40:00,,0824.7,5.00,0.00,27.5,26.6,00.0,36.3,29.3,03.0,0000.0,0000.88,0005.94,0000.52
2022-03-15 20:41:00,,0824.5,4.99,0.00,27.5,26.6,00.0,36.3,29.3,03.0,0000.0,0000.88,0006.04,0000.51
2022-03-15 20:42:00,,0824.6,5.01,0.00,27.5,26.6,00.0,36.3,29.3,02.9,0000.0,0000.90,0006.09,0000.51
2022-03-15 20:43:00,,0824.5,5.00,0.00,27.5,26.6,00.0,36.4,29.3,02.9,0000.0,0000.92,0006.06,0000.51
2022-03-15 20:44:00,,0824.6,4.99,0.00,27.5,26.6,00.0,36.4,29.3,02.9,0000.0,0000.94,0004.96,0000.51
2022-03-15 20:45:00,,0824.6,5.00,0.00,27.5,26.6,00.0,36.4,29.3,03.0,0000.0,0001.00,0005.01,0000.51
2022-03-15 20:46:00,,0824.6,5.00,0.00,27.5,26.6,00.0,36.4,29.3,02.9,0000.0,0001.02,0005.15,0000.52
2022-03-15 20:47:00,,0824.6,5.00,0.00,27.5,26.6,00.0,36.4,29.3,03.1,0000.0,0001.04,0005.31,0000.53
2022-03-15 20:48:00,,0824.6,4.99,0.00,27.5,26.6,00.0,36.4,29.3,03.2,0000.0,0001.08,0007.08,0000.52
2022-03-15 20:49:00,,0824.6,5.00,0.00,27.5,26.6,00.0,36.4,29.3,03.5,0000.0,0001.09,0007.03,0000.52
2022-03-15 20:50:00,,0824.6,5.00,0.00,27.5,26.7,00.0,36.4,29.3,03.3,0000.0,0001.11,0006.00,0000.53
2022-03-15 20:51:00,,0824.6,5.00,0.00,27.5,26.7,00.0,36.4,29.3,03.1,0000.0,0001.07,0004.28,0000.53
2022-03-15 20:52:00,,0824.6,5.01,0.00,27.5,26.7,00.0,36.4,29.3,03.2,0000.0,0001.13,0004.77,0000.53
2022-03-15 20:53:00,,0824.6,5.01,0.00,27.5,26.7,00.0,36.4,29.3,02.9,0000.0,0001.15,0005.05,0000.53
2022-03-15 20:54:00,,0824.5,5.00,0.00,27.5,26.7,00.0,36.4,29.3,03.2,0000.0,0001.15,0006.01,0000.53
2022-03-15 20:55:00,,0824.5,5.00,0.00,27.5,26.7,00.0,36.4,29.3,03.3,0000.0,0001.14,0006.39,0000.53
2022-03-15 20:56:00,,0824.4,5.00,0.00,27.5,26.7,00.0,36.4,29.3,03.3,0000.0,0001.13,0006.32,0000.54
2022-03-15 20:57:00,,0824.4,5.00,0.00,27.5,26.7,00.0,36.4,29.3,03.2,0000.0,0001.07,0006.08,0000.53
2022-03-15 20:58:00,,0824.4,5.00,0.00,27.5,26.7,00.0,36.4,29.4,03.2,0000.0,0001.09,0006.06,0000.52
2022-03-15 20:59:00,,0824.4,4.99,0.00,27.5,26.7,00.0,36.4,29.3,03.1,0000.0,0001.09,0004.41,0000.52
